Regional Weather Roundup
Issued by NWS

Home | Current Version | Previous Version | Text Only | Print | Product List | Glossary On
Versions: 1 2 3 4 5 6 7 8 9 10 11 12 13 14 15 16 17 18 19 20 21 22 23 24 25 26 27 28 29 30 31 32 33 34 35 36 37 38 39 40 41 42 43 44 45 46 47 48 49 50
000
ASUS44 KFWD 201503
RWRTX
NORTH TEXAS HOURLY WEATHER ROUNDUP
NATIONAL WEATHER SERVICE FORT WORTH TX
1000 AM CDT THU JUL 20 2017

NOTE: "FAIR" INDICATES FEW OR NO CLOUDS BELOW 12,000 FEET WITH NO
SIGNIFICANT WEATHER AND/OR OBSTRUCTIONS TO VISIBILITY.

TXZ118-119-201600-
DALLAS/FORT WORTH METROPLEX

CITY           SKY/WX    TMP DP  RH WIND       PRES   REMARKS
DFW AIRPORT    MOSUNNY   90  74  59 SW12      30.11S HX  99
DALLAS LOVE    MOSUNNY   89  73  59 SW9       30.12F HX  97
FTW MEACHAM    SUNNY     88  75  65 SW9       30.12F HX  97
DAL-EXECUTIVE  SUNNY     88  74  63 VRB7      30.13S HX  96
FTW-ALLIANCE   MOSUNNY   89  73  59 SW10      30.12F HX  97
FTW-NAS-JRB    MOSUNNY   89  72  56 SW10      30.13S HX  96
FTW-SPINKS     SUNNY     88  72  58 SW8       30.15S HX  94
ARLINGTON      SUNNY     88  74  63 SW8       30.13S HX  96
GRAND PRAIRIE  SUNNY     88  72  58 S7        30.14F HX  94
ADDISON        SUNNY     86  72  62 SW7       30.14R HX  92
MESQUITE       SUNNY     88  73  62 S6        30.13F HX  96
LANCASTER      SUNNY     87  72  60 SW9       30.14F HX  93
$$

TXZ091>094-102>105-117-120-121-131>134-201600-
NORTH CENTRAL TEXAS

CITY           SKY/WX    TMP DP  RH WIND       PRES   REMARKS
SHRMAN/DENISON SUNNY     89  73  58 SW13      30.13F HX  96
GAINESVILLE    SUNNY     88  72  59 S9        30.14F HX  94
BOWIE          SUNNY     89  71  54 S10       30.13F HX  94
BRIDGEPORT     SUNNY     88  69  54 SW9       30.15S HX  92
DECATUR        SUNNY     86  72  62 SW9       30.14S HX  91
DENTON         SUNNY     89  74  60 S10       30.12S HX  98
MCKINNEY       SUNNY     89  75  63 SW10      30.12F HX  99
BONHAM         SUNNY     88  73  62 SW12      30.13F HX  96
GREENVILLE     SUNNY     90  73  58 SW7       30.14S HX  98
ROCKWALL       SUNNY     86  75  69 SW10G20   30.13F HX  95
TERRELL        SUNNY     87  74  64 SW7       30.14S HX  95
WAXAHACHIE     SUNNY     87  73  61 SW9       30.15S HX  94
CLEBURNE       SUNNY     86  75  70 SW7G13    30.16S HX  95
GRANBURY       MOSUNNY   89  71  55 S7        30.15S HX  94
$$

TXZ083>090-098>101-113>116-127>130-139>142-154-155-201600-
WESTERN NORTH TEXAS

CITY           SKY/WX    TMP DP  RH WIND       PRES   REMARKS
WICHITA FALLS  SUNNY     88  69  53 SW16      30.09F HX  92
WF-KICKAPOO    SUNNY     87  70  57 S14G22    30.13S HX  91
VERNON         SUNNY     88  59  37 SW12      30.11S
ABILENE        SUNNY     85  69  58 S12       30.17S
ABILENE-DYESS  SUNNY     87  70  55 S13       30.15S HX  92
GRAHAM         MOSUNNY   87  69  56 S8        30.13S HX  91
BRECKENRIDGE   SUNNY     89  68  49 SW9G18    30.14F HAZE    HX  92
CISCO          SUNNY     86  70  58 SW12      30.18S HX  90
EASTLAND       SUNNY     85  71  63 S14       30.16F HX  90
RANGER         SUNNY     84  71  64 SW10      30.17S
MINERAL WELLS  PTSUNNY   86  71  60 SW8       30.13S HX  91
STEPHENVILLE   SUNNY     86  70  59 S7        30.19S HX  91
COMANCHE       SUNNY     86  71  60 W7        30.17S HX  92
BROWNWOOD      SUNNY     86  70  58 S5        30.17F HX  90
COLEMAN        SUNNY     85  68  56 S10       30.18F
$$

TXZ143>147-156>162-174-175-201600-
CENTRAL TEXAS

CITY           SKY/WX    TMP DP  RH WIND       PRES   REMARKS
WACO           SUNNY     88  74  63 SW6       30.14S HX  96
WACO-TSTC      SUNNY     88  72  58 SW5       30.14F HX  94
WACO-MCGREGOR  SUNNY     89  73  59 SW7       30.14F HX  97
HILLSBORO      SUNNY     87  73  63 S8        30.14F HX  94
CORSICANA      SUNNY     87  73  62 SW10      30.15S HX  94
MEXIA          SUNNY     86  73  64 SW7       30.14F HX  93
HEARNE         SUNNY     85  75  71 SW5       30.16S HX  94
CAMERON        SUNNY     87  74  65 SW7       30.15S HX  94
TEMPLE         SUNNY     89  72  56 S10       30.15F HX  96
KILLEEN        SUNNY     86  70  58 S8        30.15S HX  91
KILLEEN-SKYLRK SUNNY     87  72  60 SW9       30.16S HX  93
FORT HOOD      SUNNY     86  71  61 SW9       30.13S HX  91
HAMILTON       SUNNY     87  71  57 SW7       30.17F HX  92
LAMPASAS       SUNNY     88  73  60 W6        30.16S HX  95
$$

TXZ095>097-106>112-122>126-135>138-148>153-164>167-201600-
EAST TEXAS

CITY           SKY/WX    TMP DP  RH WIND       PRES   REMARKS
PARIS            N/A     89  76  65 SW10        N/A  HX 100
SULPHUR SPRNGS SUNNY     88  76  67 SW9       30.15F HX  98
MOUNT PLEASANT SUNNY     87  74  65 W9        30.15S HX  96
GILMER         SUNNY     86  76  70 W5        30.14S HX  96
MINEOLA        SUNNY     86  75  70 SW9       30.14S HX  95
TYLER          SUNNY     87  75  67 SW9       30.15S HX  96
LONGVIEW       SUNNY     88  77  69 SW9       30.13F HX 100
MARSHALL         N/A     85  74  68 SW7       30.16S HX  92
ATHENS         SUNNY     84  72  65 SW3       30.13S
PALESTINE      SUNNY     85  75  71 SW6       30.16F HX  94
JACKSONVILLE   SUNNY     85  75  72 W5        30.18S HX  93
HENDERSON      SUNNY     86  76  72 SW7       30.16S HX  96
CENTER         HAZE      89  79  71 W6        30.16R VSB 3/4 HX 104
NACOGDOCHES    SUNNY     84  75  74 W8        30.13S HX  92
LUFKIN         MOSUNNY   85  76  74 W10       30.15S HX  94
$$

SUPPLEMENTAL OBSERVATIONS (NWS FORT WORTH AREA)

CITY           SKY/WX    TMP DP  RH WIND       PRES   REMARKS
$$

SUPPLEMENTAL OBSERVATIONS (NWS NORMAN AREA)

CITY           SKY/WX    TMP DP  RH WIND       PRES   REMARKS
GOODLETT         N/A     89  61  38 SW9       30.11F
ODELL            N/A     87  68  52 S9        30.12S HX  91
CROWELL          N/A     91  64  39 SW10      30.13F HX  92
KNOX CITY        N/A     89  63  42 SW15      30.14F
SEYMOUR          N/A     91  64  40 SW14      30.13S HX  92
$$

SUPPLEMENTAL OBSERVATIONS (NWS SAN ANGELO AREA)

CITY           SKY/WX    TMP DP  RH WIND       PRES   REMARKS
WEINERT          N/A     88  68  51 SW14      30.15S HX  92
HASKELL          N/A     87  63  44 SW14      30.15S
THROCKMORTON     N/A     86  72  61 SW9G15    30.15S HX  92
STAMFORD         N/A     87  69  53 SW14      30.16F HX  91
CLYDE            N/A     85  70  60 SW14      30.20S
$$

SUPPLEMENTAL OBSERVATIONS (NWS SHREVEPORT AREA)

CITY           SKY/WX    TMP DP  RH WIND       PRES   REMARKS
$$

SUPPLEMENTAL OBSERVATIONS ARE A COLLECTION OF AUTOMATED INSTRUMENTS
THAT ARE MAINTAINED BY A VARIETY OF FEDERAL AND STATE AGENCIES.
CERTAIN ELEMENTS...SUCH AS HUMIDITY VALUES AND SUSTAINED WIND
SPEEDS...MAY BE APPROXIMATED.




USA.gov is the U.S. government's official web portal to all federal, state and local government web resources and services.